Home > Weather > Puerto Williams > Past weeks

Flag for Chile Past Weather in Puerto Williams, Chile — Yesterday and Last 2 Weeks

Now
43 °F

Mostly cloudy.


Feels Like: 43 °F
Forecast: 38 / 41 °F
Wind: No wind

Location: Ushuaia Aerodrome

Current Time: Jul 29, 2016 at 10:12:03 AM

Latest Report: Jul 29, 2016 at 9:00 AM


Visibility: N/A

Pressure: 29.59 "Hg

Humidity: 81%

Dew Point: 37 °F

Location of Puerto WilliamsLocation

Past Weather in Puerto Williams — Graph

°F

Puerto Williams Temperature Yesterday

Maximum temperature yesterday: 46 °F (at 10:00 PM)
Minimum temperature yesterday: 36 °F (at 12:00 AM)
Average temperature yesterday: 41 °F

High & Low Weather Summary for the Past Weeks

 TemperatureHumidityPressure
High50 °F (Jul 19, 5:00 AM)100% (Jul 20, 5:00 PM)30.30 "Hg (Jul 20, 5:00 PM)
Low28 °F (Jul 23, 3:00 AM)34% (Jul 19, 12:00 AM)29.00 "Hg (Jul 20, 10:00 PM)
Average38 °F72%29.82 "Hg
* Reported Jul 14 8:00 AM — Jul 29 8:00 AM, Puerto Williams, Weather by CustomWeather, © 2016

Note: Actual official high and low records may vary slightly from our data, if they occured in-between our weather recording intervals... More about our weather records

Advertising

Puerto Williams Weather History for the Previous 24 Hours

Scroll right to see more
 ConditionsComfort  
Time TempWeatherWind HumidityBarometerVisibility
8:00 AM
Fri, Jul 29
43 °FPartly sunny.No wind81%29.59 "HgN/A
7:00 AM43 °FPassing clouds.5 mph81%29.59 "HgN/A
6:00 AM43 °FPassing clouds.5 mph81%29.59 "HgN/A
5:00 AM43 °FPartly cloudy.6 mph76%29.59 "HgN/A
4:00 AM45 °FPassing clouds.5 mph57%29.62 "HgN/A
2:00 AM46 °FPassing clouds.9 mph53%29.65 "HgN/A
1:00 AM46 °FPassing clouds.8 mph57%29.68 "HgN/A
12:00 AM46 °FPassing clouds.10 mph57%29.68 "HgN/A
11:00 PM
Thu, Jul 28
45 °FPassing clouds.17 mph57%29.71 "HgN/A
10:00 PM46 °FPassing clouds.13 mph53%29.71 "HgN/A
9:00 PM45 °FPassing clouds.9 mph57%29.74 "HgN/A
8:00 PM45 °FScattered showers. Passing clouds.12 mph61%29.74 "HgN/A
7:00 PM45 °FScattered showers. Passing clouds.13 mph61%29.77 "HgN/A
6:00 PM45 °FScattered showers. Passing clouds.16 mph61%29.77 "HgN/A
5:00 PM45 °FScattered showers. Passing clouds.14 mph61%29.80 "HgN/A
4:00 PM45 °FPassing clouds.10 mph57%29.80 "HgN/A
3:00 PM45 °FScattered showers. Partly sunny.17 mph57%29.83 "HgN/A
2:00 PM45 °FScattered showers. Partly sunny.14 mph61%29.86 "HgN/A
1:00 PM45 °FScattered clouds.5 mph57%29.86 "HgN/A
12:00 PM39 °FScattered showers. Overcast.10 mph75%29.89 "HgN/A
11:00 AM39 °FScattered showers. More clouds than sun.No wind75%29.92 "HgN/A
10:00 AM39 °FScattered showers. Partly sunny.14 mph56%29.95 "HgN/A
Weather by CustomWeather, © 2016

See weather overviewHow to use our weather pages